Location: Arcones
(41.1182°N, 3.7238°W)
Time: 20:34:44
(UTC+00:00)

NOAA 6 - Pass Details

Date: 11 December 2025
Orbit: 767 x 781 km, 98.6° (Epoch: 12 January)

Event Time Altitude Azimuth Distance (km) Brightness Sun altitude
Rises 19:02:03 0° 166° (SSE) 3,234 7.2 -24.7°
Reaches altitude 10° 19:04:21 10° 166° (SSE) 2,309 6.4 -25.2°
Maximum altitude 19:09:27 87° 254° (WSW) 777 3.9 -26.1°
Drops below altitude 10° 19:14:35 10° 346° (NNW) 2,317 6.5 -27.1°
Sets 19:16:53 0° 347° (NNW) 3,247 7.3 -27.5°
